Stations météo

réclame
Mon MeteoGroup
Elsenborn, Belgique (6496): Température de l'air & dewpoint: 13.03.2019 03:00:00 - 19.03.2019 03:00:00 (CET)Elsenborn, Belgique (6496): Vitesse du vent & gusts: 13.03.2019 03:00:00 - 19.03.2019 03:00:00 (CET)Elsenborn, Belgique (6496): Direction du vent: 13.03.2019 03:00:00 - 19.03.2019 03:00:00 (CET)Elsenborn, Belgique (6496): reduced air pressure: 13.03.2019 03:00:00 - 19.03.2019 03:00:00 (CET)Elsenborn, Belgique (6496): visibility: 13.03.2019 03:00:00 - 19.03.2019 03:00:00 (CET)
Date & Time tt [°C] td [°C] ff [km/h] ff [knt] fx [km/h] fx [knt] dd ppp [hPa] vv [km]
19.03.2019 03:00:00 -4,3 -4,9 4 2 4 2 N 1028,0 5
19.03.2019 02:00:00 -3,3 -3,9 4 2 4 2 N 1027,5 9
19.03.2019 01:00:00 -2,5 -2,9 4 2 - - N 1027,0 10
19.03.2019 00:00:00 -2,4 -2,8 4 2 4 2 N 1027,0 10
18.03.2019 23:00:00 -2,2 -2,7 4 2 4 2 N 1026,5 7
18.03.2019 22:00:00 -0,8 -1,2 4 2 - - N 1025,5 9
18.03.2019 21:00:00 0,3 -0,7 4 2 11 6 N 1024,5 20
18.03.2019 20:00:00 1,7 -0,3 4 2 11 6 N 1023,7 20
18.03.2019 19:00:00 1,3 -0,8 4 2 - - N 1023,0 20
18.03.2019 18:00:00 2,9 -1,0 7 4 22 12 W 1021,8 20
18.03.2019 17:00:00 4,4 -1,8 7 4 25 14 WNW 1020,8 20
18.03.2019 16:00:00 3,5 -1,4 11 6 - - W 1020,8 20
18.03.2019 15:00:00 3,4 -1,3 11 6 29 16 WNW 1020,6 20
18.03.2019 14:00:00 4,0 -2,0 11 6 25 14 W 1020,2 20
18.03.2019 13:00:00 3,2 -0,6 14 8 - - WNW 1020,2 20
18.03.2019 12:00:00 4,1 1,3 11 6 29 16 WNW 1019,5 20
18.03.2019 11:00:00 2,4 1,5 9 5 22 12 W 1019,5 10
18.03.2019 10:00:00 1,2 0,4 7 4 - - W 1019,2 8
18.03.2019 09:00:00 0,6 0,6 11 6 22 12 W 1018,6 2,0
18.03.2019 08:00:00 0,2 0,1 4 2 14 8 N 1017,7 2,6
18.03.2019 07:00:00 0,0 0,0 7 4 - - SW 1017,1 0,2
18.03.2019 06:00:00 -0,1 -0,1 4 2 18 10 N 1016,2 0,5
18.03.2019 05:00:00 -0,1 -0,3 7 4 25 14 WSW 1015,6 6
18.03.2019 04:00:00 0,1 -0,3 8 4 - - WSW 1015,2 10
18.03.2019 03:00:00 -0,3 -0,3 4 2 25 14 N 1015,0 15
18.03.2019 02:00:00 0,1 -0,1 7 4 18 10 WSW 1014,6 15
18.03.2019 01:00:00 0,0 -0,3 7 4 - - WSW 1014,0 13
18.03.2019 00:00:00 -0,3 -0,5 7 4 14 8 SW 1013,8 19
17.03.2019 23:00:00 -0,5 -0,6 4 2 18 10 N 1013,7 6
17.03.2019 22:00:00 -0,5 -0,8 7 4 - - SW 1013,6 15
17.03.2019 21:00:00 -0,3 -0,8 11 6 36 19 W 1012,8 1,5
17.03.2019 20:00:00 -0,4 -0,8 16 9 36 19 WNW 1012,2 10
17.03.2019 19:00:00 0,3 -0,8 11 6 - - W 1011,0 10
17.03.2019 18:00:00 3,2 -0,1 7 4 25 14 W 1008,8 20
17.03.2019 17:00:00 3,4 0,2 7 4 22 12 WSW 1007,7 20
17.03.2019 16:00:00 3,6 0,1 16 9 - - W 1007,3 10
17.03.2019 15:00:00 2,2 -1,6 25 14 47 25 W 1007,6 1,0
17.03.2019 14:00:00 5,6 -0,9 25 14 43 23 W 1005,2 20
17.03.2019 13:00:00 5,1 0,0 21 11 - - W 1005,2 10
17.03.2019 12:00:00 4,6 2,0 14 8 32 18 W 1004,6 20
17.03.2019 11:00:00 3,5 2,3 11 6 25 14 WSW 1004,6 20
17.03.2019 10:00:00 2,5 2,1 7 4 - - WSW 1004,1 20
17.03.2019 09:00:00 2,4 1,7 22 12 47 25 W 1003,5 7
17.03.2019 08:00:00 4,0 3,6 14 8 40 21 SW 1001,7 8
17.03.2019 07:00:00 4,4 3,9 11 6 - - SW 1001,3 2,9
17.03.2019 06:00:00 4,9 3,7 11 6 40 21 SW 1000,8 10
17.03.2019 05:00:00 5,3 2,0 11 6 40 21 SW 1001,0 20
17.03.2019 04:00:00 5,8 2,1 14 8 - - SW 1001,3 20
17.03.2019 03:00:00 6,0 2,3 11 6 40 21 SW 1001,7 20
17.03.2019 02:00:00 6,3 2,8 11 6 36 19 SW 1002,3 20
17.03.2019 01:00:00 6,5 3,1 14 8 - - SW 1003,2 20
17.03.2019 00:00:00 6,6 3,6 14 8 40 21 SW 1003,8 20
16.03.2019 23:00:00 6,6 3,9 14 8 43 23 SW 1004,6 20
16.03.2019 22:00:00 6,5 3,8 11 6 - - SW 1005,2 20
16.03.2019 21:00:00 6,4 3,7 14 8 36 19 SW 1006,0 20
16.03.2019 20:00:00 6,3 3,5 14 8 32 18 SW 1006,5 20
16.03.2019 19:00:00 6,4 3,5 11 6 - - SW 1006,7 20
16.03.2019 18:00:00 6,6 3,6 11 6 32 18 SW 1007,2 20
16.03.2019 17:00:00 6,8 3,7 11 6 40 21 SW 1008,0 20
16.03.2019 16:00:00 6,8 3,6 11 6 - - SW 1008,7 20
16.03.2019 15:00:00 6,5 3,7 14 8 40 21 SW 1009,2 20
16.03.2019 14:00:00 6,4 4,3 14 8 36 19 SW 1010,2 20
16.03.2019 13:00:00 6,3 4,5 14 8 - - SW 1010,7 20
16.03.2019 12:00:00 6,5 5,1 14 8 43 23 WSW 1010,8 18
16.03.2019 11:00:00 6,8 5,4 14 8 36 19 WSW 1011,1 20
16.03.2019 10:00:00 6,4 5,8 14 8 - - WSW 1011,7 20
16.03.2019 09:00:00 6,5 6,1 14 8 43 23 WSW 1011,7 4,9
16.03.2019 08:00:00 6,6 6,3 14 8 47 25 WSW 1011,7 2,5
16.03.2019 07:00:00 6,6 6,3 14 8 - - W 1011,2 4,0
16.03.2019 06:00:00 6,8 6,5 14 8 40 21 WSW 1011,2 4,8
16.03.2019 05:00:00 7,0 6,7 18 10 40 21 W 1011,0 3,2
16.03.2019 04:00:00 7,0 6,7 14 8 - - W 1011,0 2,1
16.03.2019 03:00:00 7,4 6,9 18 10 43 23 W 1011,2 3,6
16.03.2019 02:00:00 7,5 7,0 22 12 43 23 W 1011,3 3,5
16.03.2019 01:00:00 7,5 7,1 22 12 - - W 1011,1 3,0
16.03.2019 00:00:00 7,6 7,2 22 12 50 27 W 1010,8 2,9
15.03.2019 23:00:00 7,8 7,3 18 10 50 27 W 1010,5 4,0
15.03.2019 22:00:00 8,1 7,4 25 14 - - W 1010,2 14
15.03.2019 21:00:00 8,1 7,6 25 14 54 29 W 1009,5 9
15.03.2019 20:00:00 8,2 7,6 25 14 54 29 W 1008,6 2,6
15.03.2019 19:00:00 8,3 7,6 22 12 - - W 1007,8 4,9
15.03.2019 18:00:00 8,3 7,6 22 12 54 29 W 1007,5 9
15.03.2019 17:00:00 8,1 7,5 18 10 54 29 W 1007,7 4,3
15.03.2019 16:00:00 8,3 7,4 26 14 - - W 1007,7 6
15.03.2019 15:00:00 8,1 7,6 25 14 54 29 W 1007,7 2,2
15.03.2019 14:00:00 8,3 7,6 25 14 50 27 W 1007,6 6
15.03.2019 13:00:00 8,1 7,6 25 14 - - W 1007,5 5
15.03.2019 12:00:00 8,1 7,5 25 14 47 25 W 1006,8 1,7
15.03.2019 11:00:00 7,9 7,6 22 12 47 25 W 1006,6 3,5
15.03.2019 10:00:00 7,1 7,1 21 11 - - W 1006,2 2,8
15.03.2019 09:00:00 5,9 5,9 11 6 25 14 WSW 1006,2 2,5
15.03.2019 08:00:00 4,1 4,1 7 4 22 12 SW 1006,7 4,0
15.03.2019 07:00:00 3,8 3,7 7 4 - - SW 1007,3 7
15.03.2019 06:00:00 3,9 3,4 9 5 25 14 WSW 1007,7 10
15.03.2019 05:00:00 3,7 2,9 9 5 18 10 WSW 1008,3 10
15.03.2019 04:00:00 3,0 2,3 4 2 - - N 1008,8 16
15.03.2019 03:00:00 3,2 2,0 7 4 25 14 WSW 1009,3 18
15.03.2019 02:00:00 3,5 1,7 11 6 29 16 W 1009,6 20
15.03.2019 01:00:00 4,1 2,3 16 9 - - W 1009,1 10
15.03.2019 00:00:00 4,0 1,9 14 8 29 16 W 1008,7 20
14.03.2019 23:00:00 4,1 1,9 14 8 32 18 W 1008,3 20
14.03.2019 22:00:00 4,1 2,2 18 10 - - WNW 1007,6 19
14.03.2019 21:00:00 4,1 2,5 14 8 43 23 WNW 1006,7 20
14.03.2019 20:00:00 4,5 2,4 18 10 47 25 WNW 1005,2 20
14.03.2019 19:00:00 6,1 2,1 25 14 - - WNW 1003,0 20
14.03.2019 18:00:00 6,0 4,0 22 12 50 27 WNW 1001,7 20
14.03.2019 17:00:00 6,3 4,3 25 14 47 25 WNW 1000,7 20
14.03.2019 16:00:00 6,0 5,1 22 12 - - WNW 1000,0 20
14.03.2019 15:00:00 5,6 4,3 29 16 50 27 W 999,8 15
14.03.2019 14:00:00 3,9 3,8 11 6 36 19 WSW 1000,2 2,5
14.03.2019 13:00:00 1,7 1,3 14 8 - - WSW 1002,2 5
14.03.2019 12:00:00 2,0 1,7 14 8 40 21 SW 1003,0 10
14.03.2019 11:00:00 2,5 2,1 14 8 36 19 SW 1004,0 8
14.03.2019 10:00:00 1,8 1,6 11 6 - - SW 1005,7 13
14.03.2019 09:00:00 1,8 1,6 11 6 36 19 SW 1007,2 6
14.03.2019 08:00:00 2,0 1,7 11 6 32 18 WSW 1008,2 5
14.03.2019 07:00:00 2,5 1,9 11 6 - - SW 1009,1 7
14.03.2019 06:00:00 2,4 1,7 11 6 29 16 WSW 1010,7 8
14.03.2019 05:00:00 2,4 1,9 11 6 32 18 WSW 1011,6 10
14.03.2019 04:00:00 2,4 1,8 7 4 - - W 1012,5 7
14.03.2019 03:00:00 2,7 1,9 11 6 32 18 W 1012,8 10
14.03.2019 02:00:00 2,9 2,0 11 6 25 14 W 1012,7 12
14.03.2019 01:00:00 2,7 1,8 14 8 - - W 1012,8 15
14.03.2019 00:00:00 1,2 0,7 7 4 36 19 WNW 1012,8 19
13.03.2019 23:00:00 3,4 2,3 22 12 40 21 W 1011,7 14
13.03.2019 22:00:00 3,4 2,4 25 14 - - W 1010,8 13
13.03.2019 21:00:00 3,0 2,1 18 10 43 23 W 1010,3 11
13.03.2019 20:00:00 3,1 2,0 22 12 40 21 WNW 1009,7 19
13.03.2019 19:00:00 1,2 0,7 14 8 - - WNW 1009,2 8
13.03.2019 18:00:00 3,2 2,2 18 10 47 25 W 1007,5 15
13.03.2019 17:00:00 3,9 2,9 11 6 32 18 WSW 1006,3 16
13.03.2019 16:00:00 3,2 2,7 14 8 - - W 1007,1 20
13.03.2019 15:00:00 2,4 2,0 14 8 40 21 WSW 1007,3 20
13.03.2019 14:00:00 2,2 1,7 11 6 40 21 WSW 1007,3 19
13.03.2019 13:00:00 2,0 1,5 14 8 - - WSW 1007,6 5
13.03.2019 12:00:00 1,0 0,5 13 7 36 19 SW 1008,1 1,5
13.03.2019 11:00:00 1,2 0,7 14 8 40 21 WSW 1008,3 5
13.03.2019 10:00:00 1,6 0,3 14 8 - - SW 1008,1 12
13.03.2019 09:00:00 1,5 0,2 11 6 36 19 SW 1008,2 14
13.03.2019 08:00:00 1,7 -0,7 14 8 40 21 SW 1008,2 12
13.03.2019 07:00:00 1,8 -0,8 14 8 - - WSW 1008,0 20
13.03.2019 06:00:00 1,8 -0,8 14 8 43 23 WSW 1008,0 20
13.03.2019 05:00:00 1,8 -0,6 11 6 36 19 WSW 1008,3 20
13.03.2019 04:00:00 2,0 -0,1 14 8 - - WSW 1008,3 20
13.03.2019 03:00:00 1,8 0,3 11 6 29 16 WSW 1008,7 20

tt = Température de l'air
td = dewpoint
ff = Vitesse du vent
fx = gusts
dd = Direction du vent
ppp = reduced air pressure
vv = visibility

stations d'obs. à proximité